Tracking 21679 objects as of 31-Oct-2020
HD Live streaming from Space Station
objects crossing your sky now

COSMOS 385

Track COSMOS 385 now!
10-day predictions
COSMOS 385 is classified as:


NORAD ID: 4799
Int'l Code: 1970-108A
Perigee: 978.9 km
Apogee: 986.0 km
Inclination: 74.0 °
Period: 104.6 minutes
Semi major axis: 7353 km
RCS: 3.9806 m2 (large)
Launch date: December 12, 1970
Source: Commonwealth of Independent States (former USSR) (CIS)
Launch site: PLESETSK MISSILE AND SPACE COMPLEX (PKMTR)
aabbcc
Your satellite tracking list
Your tracking list is empty




NASA's NSSDC Master Catalog

Two Line Element Set (TLE):
1  4799U 70108A   20304.22669036 -.00000012 +00000-0 +10426-4 0  9999
2  4799 074.0222 214.4626 0004819 249.9676 223.1845 13.76781121505741
Source of the keplerian elements: AFSPC